Terminal Aerodrome Forecast
Issued by NWS

Home | Current Version | Previous Version | Text Only | Print | Product List | Glossary On
Versions: 1 2 3 4 5 6 7 8 9 10 11 12 13 14 15 16 17 18 19 20 21 22 23 24 25 26 27 28
125
FTUS45 KSLC 132347
TAFENV
TAF
KENV 132347Z 1400/1424 VRB03KT P6SM SCT010
     FM140900 VRB04KT P6SM SCT010 BKN060
     FM141200 VRB04KT P6SM FEW010 SCT060 BKN100
      AMD LTD TO CLD VIS AND WIND=

USA.gov is the U.S. government's official web portal to all federal, state and local government web resources and services.